Location: Oshawa
(43.9000°N, 78.8670°W)
Time: 01:12:55
(UTC-04:00)

Amateur Radio Satellites - All Passes

Search period start: 23 October 2014 00:42
Search period end: 24 October 2014 00:42
Location: Oshawa, 43.9000°N, 78.8670°W

Satellite Date Start Highest point End Downlink Frequencies (MHz)
Time Altitude Azimuth
UOSAT-12 23 Oct 01:02:20 01:06:51 46° 242° (WSW) 01:11:17 437.025 FM, 437.400 FM
RS-15 23 Oct 01:03:17 01:13:49 50° 318° (NW) 01:24:26 29.354 - 29.394 USB, Beacon 29.352 USB
JAS-1B 23 Oct 01:17:04 01:19:24 12° 88° (E) 01:21:49 435.800 - 435.900 CW/SSB
Oscar 16 23 Oct 01:26:50 01:28:31 12° 88° (E) 01:30:12 437.025 USB, Beacon 2401.1428
MaSat-1 23 Oct 02:09:00 02:11:56 19° 307° (NW) 02:14:40 437.345 MHz
Oscar 19 23 Oct 02:18:17 02:22:58 35° 97° (E) 02:27:38 437.125 CW, 437.150 USB
AO-27 23 Oct 02:31:13 02:35:02 20° 92° (E) 02:38:49 436.795 MHz FM
Oscar 16 23 Oct 03:03:24 03:08:34 87° 285° (WNW) 03:13:41 437.025 USB, Beacon 2401.1428
JAS-1B 23 Oct 03:04:15 03:10:45 73° 104° (ESE) 03:18:31 435.800 - 435.900 CW/SSB
AO-Echo 23 Oct 03:15:24 03:20:42 66° 102° (ESE) 03:25:59 ?
Uribyol 2 23 Oct 03:19:08 03:24:17 57° 101° (E) 03:29:23 436.500 FM
RS-15 23 Oct 03:20:58 03:29:38 26° 351° (N) 03:38:27 29.354 - 29.394 USB, Beacon 29.352 USB
ITAMSAT 1 23 Oct 03:24:35 03:29:47 60° 101° (ESE) 03:34:55 435.822 SSB
PCSat 23 Oct 03:27:27 03:29:23 12° 102° (ESE) 03:31:18 145.825 MHz
Gurwin Techsat 1B 23 Oct 03:32:09 03:37:06 38° 97° (E) 03:42:01 435.225 FM
TMSAT-1 23 Oct 03:44:48 03:49:43 37° 97° (E) 03:54:35 436.925 FM
Oscar 19 23 Oct 03:57:47 04:02:13 30° 294° (WNW) 04:06:38 437.125 CW, 437.150 USB
OPAL 23 Oct 04:03:16 04:06:32 17° 58° (ENE) 04:09:47 ?
AO-27 23 Oct 04:09:46 04:14:53 55° 289° (WNW) 04:19:57 436.795 MHz FM
Sapphire 23 Oct 04:43:57 04:49:10 52° 115° (ESE) 04:54:26 437.095 MHz 1200 baud AX-25 AFSK
Oscar 16 23 Oct 04:44:54 04:47:08 13° 303° (WNW) 04:49:22 437.025 USB, Beacon 2401.1428
AO-Echo 23 Oct 04:55:19 04:58:56 19° 299° (WNW) 05:02:34 ?
JAS-1B 23 Oct 04:56:13 05:00:59 22° 299° (WNW) 05:06:18 435.800 - 435.900 CW/SSB
Uosat F 23 Oct 04:59:04 05:03:20 27° 95° (E) 05:07:33 435.120 FM
Uribyol 2 23 Oct 04:59:31 05:03:20 21° 299° (WNW) 05:07:08 436.500 FM
ITAMSAT 1 23 Oct 05:05:05 05:08:49 20° 299° (WNW) 05:12:32 435.822 SSB
PCSat 23 Oct 05:06:30 05:11:55 85° 119° (ESE) 05:17:23 145.825 MHz
Gurwin Techsat 1B 23 Oct 05:12:21 05:16:57 30° 295° (WNW) 05:21:31 435.225 FM
JAS-2 23 Oct 05:15:49 05:20:51 18° 86° (E) 05:25:52 435.800 - 435.900 CW/SSB, 435.910 FM
AO-7 23 Oct 05:24:34 05:32:45 58° 103° (ESE) 05:40:55 29.400 - 29.500 MHz
TMSAT-1 23 Oct 05:24:54 05:29:31 31° 294° (WNW) 05:34:07 436.925 FM
RS-15 23 Oct 05:36:58 05:46:35 33° 26° (NNE) 05:56:27 29.354 - 29.394 USB, Beacon 29.352 USB
OPAL 23 Oct 05:39:43 05:44:52 72° 255° (WSW) 05:49:59 ?
STRAND 1 23 Oct 05:44:42 05:47:37 16° 59° (ENE) 05:50:33 ?
Hamsat 23 Oct 05:54:49 05:56:29 12° 89° (E) 05:58:09 145.90 MHz
Sapphire 23 Oct 06:28:14 06:32:52 28° 314° (NW) 06:37:33 437.095 MHz 1200 baud AX-25 AFSK
Uosat F 23 Oct 06:37:32 06:42:13 39° 292° (WNW) 06:46:52 435.120 FM
PCSat 23 Oct 06:52:08 06:56:03 20° 320° (NW) 06:59:58 145.825 MHz
JAS-2 23 Oct 06:59:00 07:06:46 85° 104° (ESE) 07:14:38 435.800 - 435.900 CW/SSB, 435.910 FM
AO-7 23 Oct 07:17:51 07:25:11 37° 303° (WNW) 07:32:33 29.400 - 29.500 MHz
STRAND 1 23 Oct 07:21:02 07:26:09 79° 257° (WSW) 07:31:20 ?
Hamsat 23 Oct 07:28:41 07:32:50 61° 286° (WNW) 07:36:59 145.90 MHz
RS-15 23 Oct 07:49:44 08:00:56 80° 54° (NE) 08:12:36 29.354 - 29.394 USB, Beacon 29.352 USB
SO-67 23 Oct 08:27:27 08:30:55 90° 128° (SE) 08:34:22 435.3500 MHz FM
Saudisat 1A 23 Oct 08:28:12 08:32:25 49° 119° (ESE) 08:36:41 436.775 MHz
JAS-2 23 Oct 08:45:10 08:50:56 24° 302° (WNW) 08:56:50 435.800 - 435.900 CW/SSB, 435.910 FM
HO-68 23 Oct 10:02:02 10:09:04 54° 101° (E) 10:16:03 435.675 MHz FM
RS-15 23 Oct 10:03:06 10:12:14 31° 256° (WSW) 10:21:43 29.354 - 29.394 USB, Beacon 29.352 USB
Saudisat 1A 23 Oct 10:08:40 10:12:14 24° 318° (NW) 10:15:50 436.775 MHz
MaSat-1 23 Oct 10:17:21 10:20:00 59° 245° (WSW) 10:22:25 437.345 MHz
ZACube-1 23 Oct 10:23:21 10:24:48 12° 88° (E) 10:26:14 437.345 MHz
UKube-1 23 Oct 10:29:59 10:34:01 35° 98° (E) 10:38:00 145.840 MHz, 145.915 MHz
FUNcube-1 23 Oct 11:06:34 11:10:28 34° 96° (E) 11:14:17 145.950 - 145.970 MHz USB
Oscar 11 23 Oct 11:12:57 11:17:16 85° 284° (WNW) 11:21:34 145.825 FM, Beacon 2401.500 USB
Sapphire 23 Oct 11:48:33 11:51:09 13° 33° (NNE) 11:53:46 437.095 MHz 1200 baud AX-25 AFSK
HO-68 23 Oct 11:50:13 11:56:28 34° 300° (WNW) 12:02:43 435.675 MHz FM
ZACube-1 23 Oct 11:57:26 12:01:42 65° 286° (WNW) 12:05:51 437.345 MHz
UKube-1 23 Oct 12:06:31 12:10:01 24° 295° (WNW) 12:13:31 145.840 MHz, 145.915 MHz
PCSat 23 Oct 12:10:40 12:14:26 19° 39° (NE) 12:18:12 145.825 MHz
KITSAT 1 23 Oct 12:25:30 12:32:49 40° 110° (ESE) 12:40:09 435.175 FM
FUNcube-1 23 Oct 12:43:19 12:46:40 23° 294° (WNW) 12:49:58 145.950 - 145.970 MHz USB
Oscar 16 23 Oct 12:44:08 12:48:00 22° 62° (ENE) 12:51:52 437.025 USB, Beacon 2401.1428
AO-Echo 23 Oct 12:54:22 12:56:40 13° 57° (ENE) 12:59:00 ?
Uribyol 2 23 Oct 13:02:02 13:04:49 15° 58° (ENE) 13:07:36 436.500 FM
ITAMSAT 1 23 Oct 13:07:26 13:10:23 15° 58° (ENE) 13:13:20 435.822 SSB
Gurwin Techsat 1B 23 Oct 13:19:51 13:20:49 11° 54° (NE) 13:21:47 435.225 FM
Sapphire 23 Oct 13:30:26 13:35:49 57° 55° (NE) 13:41:08 437.095 MHz 1200 baud AX-25 AFSK
TMSAT-1 23 Oct 13:33:02 13:33:10 10° 54° (NE) 13:33:18 436.925 FM
Oscar 19 23 Oct 13:36:23 13:41:26 59° 72° (ENE) 13:46:30 437.125 CW, 437.150 USB
SO-50 23 Oct 13:42:14 13:46:32 48° 118° (ESE) 13:50:59 436.795 FM
AO-27 23 Oct 13:50:27 13:55:08 35° 67° (ENE) 13:59:52 436.795 MHz FM
JAS-1B 23 Oct 13:52:24 13:58:21 68° 72° (ENE) 14:03:59 435.800 - 435.900 CW/SSB
PCSat 23 Oct 13:53:10 13:58:38 89° 60° (ENE) 14:04:03 145.825 MHz
ISS 23 Oct 14:00:10 14:03:23 49° 142° (SE) 14:06:38 145.800 FM
Oscar 10/S400 23 Oct 14:13:58 14:30:45 34° 152° (SSE) 14:52:19 145.825 - 145.975 CW/USB, Beacon 145.810 USB
KITSAT 1 23 Oct 14:20:08 14:28:00 54° 310° (NW) 14:35:55 435.175 FM
Oscar 16 23 Oct 14:21:56 14:26:59 53° 260° (W) 14:32:02 437.025 USB, Beacon 2401.1428
AO-Echo 23 Oct 14:29:47 14:34:39 87° 257° (WSW) 14:39:44 ?
AO-7 23 Oct 14:35:37 14:41:26 22° 49° (NE) 14:47:16 29.400 - 29.500 MHz
Uribyol 2 23 Oct 14:38:21 14:43:34 85° 256° (WSW) 14:48:51 436.500 FM
ITAMSAT 1 23 Oct 14:43:59 14:49:12 81° 256° (WSW) 14:54:28 435.822 SSB
Gurwin Techsat 1B 23 Oct 14:54:32 14:59:48 68° 73° (ENE) 15:05:06 435.225 FM
TMSAT-1 23 Oct 15:06:49 15:12:04 66° 73° (ENE) 15:17:20 436.925 FM
UOSAT-12 23 Oct 15:14:33 15:18:50 39° 117° (ESE) 15:23:13 437.025 FM, 437.400 FM
Sapphire 23 Oct 15:14:41 15:18:49 23° 253° (WSW) 15:22:57 437.095 MHz 1200 baud AX-25 AFSK
Saudisat 1A 23 Oct 15:15:29 15:17:22 12° 32° (NNE) 15:19:14 436.775 MHz
Oscar 19 23 Oct 15:17:43 15:21:10 18° 269° (W) 15:24:38 437.125 CW, 437.150 USB
SO-50 23 Oct 15:23:30 15:27:19 26° 318° (NW) 15:31:14 436.795 FM
AO-27 23 Oct 15:30:04 15:34:40 31° 264° (W) 15:39:18 436.795 MHz FM
ISS 23 Oct 15:37:08 15:40:12 33° 341° (NNW) 15:43:17 145.800 FM
PCSat 23 Oct 15:38:48 15:41:14 13° 257° (WSW) 15:43:40 145.825 MHz
JAS-1B 23 Oct 15:46:02 15:49:37 16° 269° (W) 15:53:05 435.800 - 435.900 CW/SSB
Uosat F 23 Oct 16:13:31 16:18:14 43° 69° (ENE) 16:23:00 435.120 FM
KITSAT 1 23 Oct 16:19:52 16:25:28 20° 336° (NNW) 16:31:05 435.175 FM
Uribyol 2 23 Oct 16:22:44 16:23:49 11° 273° (W) 16:24:54 436.500 FM
AO-7 23 Oct 16:24:48 16:33:05 84° 70° (ENE) 16:41:25 29.400 - 29.500 MHz
Gurwin Techsat 1B 23 Oct 16:37:01 16:40:16 16° 270° (W) 16:43:32 435.225 FM
TMSAT-1 23 Oct 16:49:04 16:52:27 17° 270° (W) 16:55:51 436.925 FM
Hamsat 23 Oct 16:50:24 16:51:49 12° 61° (ENE) 16:53:14 145.90 MHz
Saudisat 1A 23 Oct 16:53:27 16:57:51 60° 52° (NE) 17:02:13 436.775 MHz
UOSAT-12 23 Oct 16:54:54 16:59:03 31° 316° (NW) 17:03:18 437.025 FM, 437.400 FM
JAS-2 23 Oct 17:12:59 17:18:32 42° 65° (ENE) 17:24:48 435.800 - 435.900 CW/SSB, 435.910 FM
ISS 23 Oct 17:14:57 17:17:35 21° 1° (N) 17:20:13 145.800 FM
OPAL 23 Oct 17:48:50 17:52:56 25° 97° (E) 17:56:59 ?
Uosat F 23 Oct 17:53:09 17:57:11 24° 266° (W) 18:01:15 435.120 FM
KITSAT 1 23 Oct 18:20:25 18:24:42 15° 7° (N) 18:28:58 435.175 FM
AO-7 23 Oct 18:20:48 18:26:47 22° 269° (W) 18:32:48 29.400 - 29.500 MHz
Hamsat 23 Oct 18:22:59 18:27:11 74° 258° (WSW) 18:31:24 145.90 MHz
Saudisat 1A 23 Oct 18:34:12 18:36:57 16° 250° (WSW) 18:39:42 436.775 MHz
ISS 23 Oct 18:51:48 18:54:56 36° 21° (NNE) 18:58:03 145.800 FM
HO-68 23 Oct 18:52:06 18:52:42 10° 43° (NE) 18:53:17 435.675 MHz FM
JAS-2 23 Oct 18:58:28 19:03:44 34° 267° (W) 19:09:40 435.800 - 435.900 CW/SSB, 435.910 FM
SO-67 23 Oct 19:01:22 19:04:29 33° 72° (ENE) 19:07:37 435.3500 MHz FM
OPAL 23 Oct 19:27:18 19:31:57 41° 294° (WNW) 19:36:33 ?
STRAND 1 23 Oct 19:30:35 19:35:11 32° 96° (E) 19:39:45 ?
KITSAT 1 23 Oct 20:16:24 20:23:18 30° 36° (NE) 20:30:10 435.175 FM
ISS 23 Oct 20:28:29 20:31:40 41° 219° (SW) 20:34:49 145.800 FM
HO-68 23 Oct 20:31:54 20:38:39 47° 64° (ENE) 20:45:26 435.675 MHz FM
AO-40 23 Oct 20:32:21 23:14:19 22° 121° (ESE) 00:30:17 Beacon 2401.320
SO-50 23 Oct 20:32:55 20:35:36 15° 32° (NNE) 20:38:17 436.795 FM
SO-67 23 Oct 20:35:39 20:37:35 14° 268° (W) 20:39:32 435.3500 MHz FM
STRAND 1 23 Oct 21:09:44 21:14:22 34° 293° (WNW) 21:18:57 ?
ZACube-1 23 Oct 21:20:59 21:23:19 14° 61° (ENE) 21:25:39 437.345 MHz
UKube-1 23 Oct 21:26:42 21:30:41 37° 69° (ENE) 21:34:42 145.840 MHz, 145.915 MHz
FUNcube-1 23 Oct 22:03:53 22:08:02 35° 69° (ENE) 22:12:09 145.950 - 145.970 MHz USB
UOSAT-12 23 Oct 22:04:05 22:05:58 12° 29° (NNE) 22:07:50 437.025 FM, 437.400 FM
Oscar 11 23 Oct 22:09:00 22:13:20 89° 77° (ENE) 22:17:41 145.825 FM, Beacon 2401.500 USB
KITSAT 1 23 Oct 22:11:34 22:19:41 85° 240° (WSW) 22:27:45 435.175 FM
SO-50 23 Oct 22:12:15 22:17:04 66° 53° (NE) 22:21:55 436.795 FM
RS-15 23 Oct 22:15:30 22:25:32 43° 110° (ESE) 22:35:30 29.354 - 29.394 USB, Beacon 29.352 USB
HO-68 23 Oct 22:19:57 22:26:27 37° 263° (W) 22:33:01 435.675 MHz FM
ZACube-1 23 Oct 22:54:35 22:59:10 71° 258° (WSW) 23:03:43 437.345 MHz
UKube-1 23 Oct 23:03:36 23:06:59 22° 266° (W) 23:10:23 145.840 MHz, 145.915 MHz
FUNcube-1 23 Oct 23:40:41 23:44:27 25° 266° (W) 23:48:12 145.950 - 145.970 MHz USB
UOSAT-12 23 Oct 23:42:37 23:47:14 51° 50° (NE) 23:51:47 437.025 FM, 437.400 FM
SO-50 23 Oct 23:53:58 23:57:09 18° 250° (WSW) 00:00:21 436.795 FM
MaSat-1 23 Oct 23:55:29 23:58:55 25° 110° (ESE) 00:02:06 437.345 MHz
KITSAT 1 24 Oct 00:08:51 00:13:54 18° 259° (W) 00:18:58 435.175 FM
